Location: Beekmeers
(50.8953°N, 3.6968°E)
Time: 02:20:20
(UTC+00:00)

Genesis I - Pass Details

Date: 23 May 2024
Orbit: 432 x 466 km, 64.5° (Epoch: 21 June)

Event Time Altitude Azimuth Distance (km) Brightness Sun altitude
Exits shadow 02:06:57 16° 187° (S) 1,244 4.6 -11.7°
Maximum altitude 02:09:21 39° 124° (SE) 690 3.8 -11.5°
Drops below altitude 10° 02:12:42 10° 54° (NE) 1,600 7.0 -11.2°
Sets 02:14:55 0° 47° (NE) 2,486 8.6 -10.9°
